Location: Crescent
(42.8242°N, 73.7329°W)
Time: 23:02:29
(UTC+00:00)

Explorer 11/Cluster Stage 4 - All Passes

Search period start: 16 February 2026 00:00
Search period end: 26 February 2026 00:00
Orbit: 463 x 1177 km, 28.8° (Epoch: 16 February)

Date Brightness Start Highest point End Pass type
(mag) Time Alt. Az. Time Alt. Az. Time Alt. Az.
20 Feb - 17:25:41 10° S 17:26:13 10° S 17:26:44 10° SSE daylight
21 Feb - 17:00:31 10° SSW 17:02:02 11° S 17:03:27 10° SSE daylight
21 Feb - 18:47:43 10° SSW 18:48:33 11° S 18:49:22 10° S daylight
22 Feb - 16:35:38 10° SSW 16:37:48 13° S 16:39:50 10° SSE daylight
22 Feb - 18:22:56 10° SSW 18:24:22 11° S 18:25:44 10° S daylight
23 Feb - 16:10:49 10° SSW 16:13:33 14° S 16:16:04 10° SE daylight
23 Feb - 17:58:13 10° SW 18:00:09 12° S 18:01:59 10° SSE daylight
24 Feb - 14:02:14 10° SSE 14:02:25 10° SSE 14:02:36 10° SSE daylight
24 Feb - 15:45:59 10° SSW 15:49:16 16° S 15:52:13 10° SE daylight
24 Feb - 17:33:28 10° SW 17:35:54 14° S 17:38:10 10° SSE daylight
25 Feb - 13:36:09 10° S 13:38:02 11° SSE 13:39:50 10° SE daylight
25 Feb - 15:21:09 10° SW 15:24:56 17° S 15:28:18 10° SE daylight
25 Feb - 17:08:43 10° SW 17:11:38 15° S 17:14:17 10° SSE daylight
